Find Aries 1

NORAD ID: 59129 Int'l Des: 2024-043 Owner: APEX Country: US operational
LEOCIRCULARRETROGRADE

当前视图

正在加载3D地球...

About Aries 1

Aries 1 (NORAD 59129) is a satellite launched Mar 4, 2024 by APEX of US. It operates in LEO, CIRCULAR, RETROGRADE orbit with a mass of 200.00 kg.

即将过境

Passes for default location (London). Set your location on the main map for personalized predictions.

高度历史

Loading altitude history...

两行轨道根数

1 59129U 24043AH 26194.88966514 .00018476 00000-0 25649-3 0 9993
2 59129 97.5499 346.6376 0006471 109.5122 250.6832 15.57063806132074
Epoch: Jul 13, 2026 • Age: 10 hours

当前状态

高度 403.1 km
远地点 / 近地点 N/A
速度 7.68 km/s
星下点 58.23°N, 60.26°W
发射日期 Mar 4, 2024
运行时间 2.3 years
类型 other

技术详情

分类 Payload
质量 200.00 kg
干质量 200.00 kg
总质量 200.00 kg
长度 0.60 m
直径 1.10 m
跨度 3.50 m
形状 Box + 2 pan
制造商 APEX
平台类型 Aries
阶段状态 In Orbit
所有者/国家 APEX/US

Most Searched